FW0904 Weather Reports


time (UTC)temp
F
wind
direction
speed
knots
gust
knots
rain 1hr
in
rain 24hr
in
rain mn
in
humidity
%
barometer
mb
20260506033048 48 40 0.0 1.7 0.00 0.00 0.00 84 1012.8
20260506031550 48 38 0.0 2.6 0.00 0.00 0.00 84 1012.8
20260506030045 48 48 0.0 1.7 0.00 0.00 0.00 84 1012.9
20260506024552 48 48 0.0 1.7 0.00 0.00 0.00 83 1013.0
20260506023039 49 41 0.0 0.9 0.00 0.00 0.00 83 1013.1
20260506021551 49 41 0.0 1.7 0.00 0.00 0.00 82 1013.1
20260506020035 49 46 0.0 1.7 0.00 0.00 0.00 82 1013.2
20260506014536 49 43 0.0 1.7 0.00 0.00 0.00 82 1013.2
20260506013033 49 43 0.0 1.7 0.00 0.00 0.00 82 1013.2
20260506011536 50 43 0.0 1.7 0.00 0.00 0.00 82 1013.2
20260506010030 50 41 0.0 1.7 0.00 0.00 0.00 82 1013.2
20260506004530 50 47 0.0 2.6 0.00 0.00 0.00 82 1013.3
20260506003028 50 48 0.9 2.6 0.00 0.00 0.00 82 1013.2
20260506001527 50 54 0.9 2.6 0.00 0.00 0.00 82 1013.2
20260506000030 50 48 0.0 3.5 0.00 0.00 0.00 81 1013.3
20260505234525 50 49 0.9 2.6 0.00 0.00 0.00 82 1013.3
20260505233023 50 48 0.9 2.6 0.00 0.00 0.00 83 1013.3
20260505231524 50 47 0.0 1.7 0.00 0.00 0.00 83 1013.3
20260505230019 50 47 0.0 1.7 0.00 0.00 0.00 82 1013.4
20260505224519 50 47 0.0 1.7 0.00 0.00 0.00 81 1013.5
20260505223026 50 47 0.0 1.7 0.00 0.00 0.00 80 1013.5
20260505221518 50 47 0.0 0.9 0.00 0.00 0.00 81 1013.6
20260505220017 50 47 0.0 0.9 0.00 0.00 0.00 81 1013.6
20260505214524 50 47 0.0 1.7 0.00 0.00 0.00 81 1013.4
20260505213019 50 47 0.0 0.9 0.00 0.00 0.00 82 1013.5
20260505211516 50 47 0.0 0.0 0.00 0.00 0.00 82 1013.5
20260505210015 50 47 0.0 0.0 0.00 0.00 0.00 81 1013.5
20260505204516 50 47 0.0 0.0 0.00 0.00 0.00 80 1013.5
20260505203014 50 47 0.0 0.0 0.00 0.00 0.00 79 1013.4
20260505201514 50 47 0.0 0.0 0.00 0.00 0.00 76 1013.3
20260505200013 50 47 0.0 0.0 0.00 0.00 0.00 74 1013.2
20260505194513 51 47 0.0 0.0 0.00 0.00 0.00 72 1012.9
20260505193012 52 47 0.0 0.0 0.00 0.00 0.00 71 1012.8
20260505191515 52 47 0.0 0.0 0.00 0.00 0.00 70 1012.8
20260505190019 53 47 0.0 0.0 0.00 0.00 0.00 68 1012.7
20260505184512 53 47 0.0 0.9 0.00 0.00 0.00 67 1012.6
20260505183010 54 47 0.0 0.9 0.00 0.00 0.00 67 1012.4
20260505181509 54 47 0.0 0.9 0.00 0.00 0.00 66 1012.5
20260505180014 55 47 0.0 0.9 0.00 0.00 0.00 65 1012.4
20260505174509 56 47 0.0 0.9 0.00 0.00 0.00 63 1012.5
20260505173007 57 47 0.0 1.7 0.00 0.00 0.00 62 1012.5
20260505171508 58 47 0.0 0.9 0.00 0.00 0.00 62 1012.4
20260505170007 58 47 0.0 1.7 0.00 0.00 0.00 61 1012.4
20260505164505 59 47 0.0 1.7 0.00 0.00 0.00 60 1012.5
20260505163009 59 47 0.0 2.6 0.00 0.00 0.00 59 1012.5
20260505161502 59 47 0.0 1.7 0.00 0.00 0.00 58 1012.5
20260505153103 61 59 0.0 2.6 0.00 0.00 0.00 57 1012.6
20260505151604 62 43 0.0 1.7 0.00 0.00 0.00 55 1012.7
20260505140107 62 44 0.0 2.6 0.00 0.00 0.00 62 1012.9
20260505124536 58 51 0.0 1.7 0.00 0.00 0.00 71 1013.2
20260505123031 58 63 0.0 1.7 0.00 0.00 0.00 69 1013.3
20260505121535 58 63 0.0 2.6 0.00 0.00 0.00 69 1013.3
20260505120041 58 63 0.0 0.9 0.00 0.00 0.00 73 1013.4
20260505114526 57 63 0.0 1.7 0.00 0.00 0.00 70 1013.4
20260505113024 57 67 0.0 2.6 0.00 0.00 0.00 73 1013.5
20260505111523 56 67 0.0 0.9 0.00 0.00 0.00 76 1013.5
20260505101514 57 57 0.0 2.6 0.00 0.00 0.00 69 1013.5
20260505100012 58 43 0.0 1.7 0.00 0.00 0.00 69 1013.6
20260505094505 58 42 0.0 2.6 0.00 0.00 0.00 71 1013.7
20260505093002 57 53 0.0 1.7 0.00 0.00 0.00 72 1013.8
20260505091607 57 61 0.0 1.7 0.00 0.00 0.00 72 1013.8
20260505090057 56 41 0.0 1.7 0.00 0.00 0.00 75 1013.9
20260505084556 56 40 0.0 2.6 0.00 0.00 0.00 76 1014.0
20260505083058 55 46 0.0 1.7 0.00 0.00 0.00 78 1014.1
20260505081549 54 44 0.0 1.7 0.00 0.00 0.00 78 1014.1
20260505080046 53 44 0.0 1.7 0.00 0.00 0.00 79 1014.0
20260505074544 53 50 0.0 0.9 0.00 0.00 0.00 80 1013.8
20260505073051 52 49 0.0 0.9 0.00 0.00 0.00 82 1014.0
20260505071552 51 53 0.0 0.0 0.00 0.00 0.00 84 1014.1
20260505070040 51 57 0.0 0.0 0.00 0.00 0.00 83 1014.1
20260505064540 51 41 0.0 0.0 0.00 0.00 0.00 84 1014.1
20260505063037 50 49 0.0 0.0 0.00 0.00 0.00 86 1014.1
20260505061536 50 49 0.0 0.0 0.00 0.00 0.00 86 1014.0
20260505060045 50 49 0.0 0.0 0.00 0.00 0.00 86 1013.9
20260505054535 50 49 0.0 0.0 0.00 0.00 0.00 88 1014.1
20260505053033 50 49 0.0 0.0 0.00 0.00 0.00 88 1014.1
20260505051537 49 49 0.0 0.0 0.00 0.00 0.00 89 1014.2
20260505041528 50 49 0.0 0.0 0.00 0.00 0.00 88 1014.4
20260505040026 50 49 0.0 0.0 0.00 0.00 0.00 88 1014.4
20260505034525 50 49 0.0 0.0 0.00 0.00 0.00 88 1014.4